{"data":{"norad_id":59081,"epoch":"2026-05-24T23:45:02.234016Z","epoch_age_seconds":73190,"freshness":"FRESH","line1":"1 59081U 24041H   26144.98960919 -.00003575  00000+0 -12048-3 0  9991","line2":"2 59081  43.0026 239.5424 0001878 258.6128 101.4513 15.27569422125933","mean_motion":15.27569422,"eccentricity":0.0001878,"inclination_deg":43.0026,"raan_deg":239.5424,"arg_perigee_deg":258.6128,"mean_anomaly_deg":101.4513,"bstar":-0.00012048,"rev_number":12593,"period_min":94.267401485076,"perigee_km":481.79223386254,"apogee_km":484.36930725716,"semimajor_km":6861.2177705598,"source":"CELESTRAK","updated_at":"2026-05-25T13:38:18.828941Z"}}